Location: Newark
(49.6833°N, 1.9000°W)
Time: 20:50:12
(UTC+00:00)

N. Korean satellite - Visible Passes

Search period start: 23 October 2019 00:00
Search period end: 02 November 2019 00:00
Orbit: 455 x 508 km, 97.2° (Epoch: 22 October)

Date Brightness Start Highest point End Pass type
(mag) Time Alt. Az. Time Alt. Az. Time Alt. Az.
23 Oct 10.0 05:06:39 10° NE 05:08:56 16° E 05:11:14 10° SE visible
24 Oct 10.4 18:29:41 10° W 18:30:29 11° W 18:31:18 10° WNW visible
25 Oct 8.0 05:48:26 10° NNE 05:51:58 45° E 05:55:30 10° S visible
25 Oct 9.6 18:02:19 10° SW 18:04:55 20° W 18:07:34 10° NW visible
26 Oct 9.3 05:23:30 10° NE 05:26:32 24° E 05:29:35 10° SSE visible
26 Oct 8.3 17:36:13 10° SSW 17:39:27 38° W 17:42:45 10° NNW visible
27 Oct 10.2 04:59:09 10° ENE 05:01:01 13° E 05:02:52 10° ESE visible
28 Oct 6.9 06:05:46 10° NNE 06:09:26 73° ESE 06:13:08 10° S visible
28 Oct 10.1 18:20:47 10° WSW 18:22:30 13° W 18:24:14 10° WNW visible
29 Oct 8.4 05:40:37 10° NNE 05:44:04 37° E 05:47:31 10° SSE visible
29 Oct 9.2 17:54:04 10° SSW 17:56:57 24° W 17:59:53 10° NW visible
30 Oct 9.6 05:15:46 10° NE 05:18:35 20° E 05:21:24 10° SE visible
30 Oct 7.8 17:28:07 10° S 17:31:29 47° W 17:34:56 10° NNW visible
31 Oct 10.4 04:51:52 10° ENE 04:53:01 11° E 04:54:10 10° ESE visible
01 Nov 7.3 05:57:51 10° NNE 06:01:31 60° E 06:05:12 10° S visible
01 Nov 9.9 18:12:14 10° SW 18:14:29 16° W 18:16:45 10° NW visible
